User: anonymous   Login
Location: Unspecified
(0.0000°N, 0.0000°E)
Time: 14:56:34
(UTC+00:00)
Language:

ICEYE-X2 - Orbit

View from above orbital plane
View from above orbital plane
View from above satellite
View from above satellite

Ground track
Ground track

The orbit data is extracted from the following two-line orbital elements,

1 43761U 18099D   22279.97110370  .00002058  00000-0  18771-3 0  9990
2 43761  97.6103 343.6727 0012870 254.4416 105.5385 14.96123990209692
Epoch (UTC): 06 October 2022 23:18:23
Eccentricity: 0.0012870
inclination: 97.6103°
perigee height: 570 km
apogee height: 588 km
right ascension of ascending node: 343.6727°
argument of perigee: 254.4416°
revolutions per day: 14.96123990
mean anomaly at epoch: 105.5385°
orbit number at epoch: 20969

The dashed part of the orbit path shows where the satellite is in the earth's shadow,  

DLR